Volver al catálogo

STARLINK-4296

ActivoComunicacionesVLEO
NORAD 52995·PAYLOAD·🇺🇸 United States

Lanzado Jul 7, 2022 desde Cape Canaveral Space Force Station

Loading…

Próximos Pases (próximas 24 horas)

TLE

ActualizadoSource: CelesTrak SupGP

Época: Sep 14, 2026, 21:07 UTC

1 52995C 22076K   26257.88034722 -.00015835  00000+0 -45296-3 0  2572
2 52995  53.1574 309.7818 0001175  86.9738 135.7666 15.35413018    14

Sigue STARLINK-4296 en tiempo real con AllMySat

Download on the App Store